FW7793 Weather Reports


time (UTC)temp
C
wind
direction
speed
KPH
gust
KPH
rain 1hr
cm
rain 24hr
cm
rain mn
cm
humidity
%
barometer
mb
20260906123103 25 201 4.8 4.8 0.00 0.00 0.00 98 1008.0
20260906122602 25 211 4.8 4.8 0.00 0.00 0.00 98 1008.0
20260906122058 25 182 3.2 3.2 0.00 0.00 0.00 98 1007.8
20260906121554 25 194 1.6 1.6 0.00 0.00 0.00 98 1008.0
20260906121051 24 191 1.6 3.2 0.00 0.00 0.00 98 1007.8
20260906120545 24 172 0.0 0.0 0.00 0.00 0.00 98 1007.9
20260906120043 24 173 0.0 0.0 0.00 0.00 0.00 98 1008.0
20260906115542 24 171 0.0 1.6 0.00 0.00 0.00 98 1007.6
20260906115038 24 171 0.0 0.0 0.00 0.00 0.00 98 1007.5
20260906114538 24 179 0.0 0.0 0.00 0.00 0.00 98 1007.4
20260906114033 24 209 3.2 3.2 0.00 0.00 0.00 98 1007.5
20260906113532 24 184 0.0 0.0 0.00 0.00 0.00 98 1007.3
20260906113028 24 184 0.0 0.0 0.00 0.00 0.00 98 1007.3
20260906112523 24 184 0.0 1.6 0.00 0.00 0.00 98 1007.3
20260906112019 24 184 0.0 0.0 0.00 0.00 0.00 98 1007.3
20260906111518 24 184 0.0 0.0 0.00 0.00 0.00 98 1007.3
20260906111014 24 184 0.0 0.0 0.00 0.00 0.00 98 1007.1
20260906110509 24 184 0.0 0.0 0.00 0.00 0.00 98 1006.9
20260906110008 24 184 0.0 0.0 0.00 0.00 0.00 98 1007.3
20260906105503 24 184 0.0 0.0 0.00 0.00 0.00 98 1007.2
20260906104959 24 184 0.0 0.0 0.00 0.00 0.00 98 1007.0
20260906104457 24 184 0.0 0.0 0.00 0.00 0.00 98 1007.0
20260906103957 24 184 1.6 1.6 0.00 0.00 0.00 98 1007.0
20260906103455 24 184 0.0 0.0 0.00 0.00 0.00 98 1007.0
20260906102950 24 184 0.0 0.0 0.00 0.00 0.00 98 1006.8
20260906102450 24 184 0.0 0.0 0.00 0.00 0.00 98 1006.8
20260906101945 24 184 0.0 0.0 0.00 0.00 0.00 98 1006.9
20260906101440 24 185 0.0 0.0 0.00 0.00 0.00 98 1006.7
20260906100936 24 182 0.0 1.6 0.00 0.00 0.00 98 1006.9
20260906100436 24 182 0.0 0.0 0.00 0.00 0.00 98 1006.7
20260906095930 25 182 0.0 0.0 0.00 0.00 0.00 98 1006.8
20260906095425 25 182 0.0 0.0 0.00 0.00 0.00 98 1006.6
20260906094920 25 183 0.0 0.0 0.00 0.00 0.00 98 1006.7
20260906094414 25 182 0.0 0.0 0.00 0.00 0.00 98 1006.5
20260906093911 25 182 0.0 0.0 0.00 0.00 0.00 98 1006.6
20260906093407 25 182 0.0 0.0 0.00 0.00 0.00 98 1006.7
20260906092901 25 182 0.0 0.0 0.00 0.00 0.00 98 1006.6
20260906092401 25 182 0.0 0.0 0.00 0.00 0.00 98 1006.5
20260906091856 25 182 0.0 0.0 0.00 0.00 0.00 98 1006.3
20260906091352 25 182 0.0 0.0 0.00 0.00 0.00 98 1006.4
20260906090849 25 182 0.0 0.0 0.00 0.00 0.00 98 1006.5
20260906090348 25 182 0.0 0.0 0.00 0.00 0.00 98 1006.3
20260906085842 25 183 0.0 0.0 0.00 0.00 0.00 98 1006.4
20260906085342 25 182 0.0 1.6 0.00 0.00 0.00 98 1006.4
20260906084836 25 182 0.0 0.0 0.00 0.00 0.00 98 1006.5
20260906084336 25 182 0.0 0.0 0.00 0.00 0.00 98 1006.6
20260906083831 25 171 0.0 0.0 0.00 0.00 0.00 98 1006.4
20260906083327 25 183 1.6 1.6 0.00 0.00 0.00 98 1006.6
20260906082826 25 182 0.0 0.0 0.00 0.00 0.00 98 1006.4
20260906082322 25 182 0.0 0.0 0.00 0.00 0.00 98 1006.5
20260906081818 25 182 0.0 0.0 0.00 0.00 0.00 98 1006.3
20260906081313 25 182 0.0 0.0 0.00 0.00 0.00 98 1006.5
20260906080809 25 182 1.6 1.6 0.00 0.00 0.00 98 1006.4
20260906080305 25 182 0.0 0.0 0.00 0.00 0.00 98 1006.5
20260906075804 25 182 0.0 0.0 0.00 0.00 0.00 98 1006.3
20260906075306 25 183 0.0 0.0 0.00 0.00 0.00 98 1006.5
20260906074800 25 183 1.6 1.6 0.00 0.00 0.00 98 1006.3
20260906074259 25 171 0.0 0.0 0.00 0.00 0.00 98 1006.5
20260906073758 25 171 0.0 0.0 0.00 0.00 0.00 98 1006.8
20260906073253 25 171 0.0 0.0 0.00 0.00 0.00 98 1006.6
20260906072749 25 173 0.0 1.6 0.00 0.00 0.00 98 1006.4
20260906072245 25 167 0.0 0.0 0.00 0.00 0.00 98 1006.4
20260906071741 25 167 0.0 0.0 0.00 0.00 0.00 98 1006.4
20260906071240 25 167 0.0 0.0 0.00 0.00 0.00 98 1006.4
20260906070737 25 167 0.0 0.0 0.00 0.00 0.00 98 1006.6
20260906070233 25 167 0.0 0.0 0.00 0.00 0.00 98 1006.4
20260906065732 25 167 0.0 0.0 0.00 0.00 0.00 98 1006.5
20260906065227 25 167 0.0 0.0 0.00 0.00 0.00 98 1006.8
20260906064723 25 167 0.0 0.0 0.00 0.00 0.00 98 1006.7
20260906064218 25 167 0.0 0.0 0.00 0.00 0.00 98 1006.4
20260906063713 25 167 0.0 0.0 0.00 0.00 0.00 98 1006.4
20260906063209 25 167 0.0 0.0 0.00 0.00 0.00 98 1006.8
20260906062705 25 167 0.0 0.0 0.00 0.00 0.00 98 1006.6
20260906062203 25 167 0.0 0.0 0.00 0.00 0.00 97 1006.7
20260906061659 25 167 0.0 0.0 0.00 0.00 0.00 97 1006.9
20260906061155 25 167 0.0 0.0 0.00 0.00 0.00 97 1006.8
20260906060651 25 167 0.0 0.0 0.00 0.00 0.00 97 1007.0
20260906060148 25 167 0.0 0.0 0.00 0.00 0.00 97 1006.9
20260906055643 25 167 0.0 0.0 0.00 0.00 0.00 97 1007.2
20260906055138 26 167 0.0 0.0 0.00 0.00 0.00 97 1007.0
20260906054634 26 167 0.0 0.0 0.00 0.00 0.00 97 1007.2
20260906054128 26 167 0.0 0.0 0.00 0.00 0.00 97 1007.0
20260906053625 26 167 0.0 0.0 0.00 0.00 0.00 97 1006.9
20260906053120 26 167 0.0 0.0 0.00 0.00 0.00 97 1007.1
20260906052615 26 167 0.0 0.0 0.00 0.00 0.00 97 1007.1
20260906052112 26 167 0.0 0.0 0.00 0.00 0.00 97 1007.3
20260906051608 26 167 0.0 0.0 0.00 0.00 0.00 97 1007.3
20260906051103 26 167 0.0 0.0 0.00 0.00 0.00 97 1007.2
20260906050558 26 167 0.0 0.0 0.00 0.00 0.00 97 1007.2
20260906050054 26 167 0.0 0.0 0.00 0.00 0.00 97 1007.1
20260906045551 26 167 0.0 0.0 0.00 0.00 0.00 97 1007.1
20260906045047 26 167 0.0 0.0 0.00 0.00 0.00 96 1007.2
20260906044542 26 167 0.0 0.0 0.00 0.00 0.00 96 1007.1
20260906044038 26 177 0.0 0.0 0.00 0.00 0.00 96 1007.3
20260906043533 26 190 0.0 1.6 0.00 0.00 0.00 96 1007.4
20260906043030 26 152 0.0 0.0 0.00 0.00 0.00 96 1007.4
20260906042528 26 151 0.0 0.0 0.00 0.00 0.00 96 1007.3
20260906042023 26 151 0.0 0.0 0.00 0.00 0.00 96 1007.3
20260906041520 26 151 0.0 0.0 0.00 0.00 0.00 96 1007.7
20260906041019 26 151 0.0 0.0 0.00 0.00 0.00 96 1007.5
20260906040515 26 150 0.0 0.0 0.00 0.00 0.00 96 1007.3
20260906040010 26 151 0.0 0.0 0.00 0.00 0.00 96 1007.6
20260906035505 26 150 0.0 0.0 0.00 0.00 0.00 96 1007.6
20260906035001 26 151 0.0 0.0 0.00 0.00 0.00 95 1007.6
20260906034500 26 151 0.0 0.0 0.00 0.00 0.00 95 1007.6
20260906033955 26 151 0.0 0.0 0.00 0.00 0.00 95 1007.5
20260906033450 26 143 0.0 0.0 0.00 0.00 0.00 95 1007.7
20260906032946 26 146 0.0 0.0 0.00 0.00 0.00 95 1007.6
20260906032443 26 138 0.0 1.6 0.00 0.00 0.00 95 1008.0
20260906031942 26 153 0.0 1.6 0.00 0.00 0.00 95 1008.0
20260906031437 26 154 0.0 0.0 0.00 0.00 0.00 95 1007.6
20260906030933 26 154 0.0 1.6 0.00 0.00 0.00 95 1008.1
20260906030427 26 154 0.0 0.0 0.00 0.00 0.00 95 1008.0
20260906025922 26 178 0.0 0.0 0.00 0.00 0.00 95 1007.8
20260906025416 26 157 1.6 1.6 0.00 0.00 0.00 94 1007.7
20260906024915 26 177 3.2 3.2 0.00 0.00 0.00 94 1007.6
20260906024415 26 169 0.0 0.0 0.00 0.00 0.00 94 1007.5
20260906023910 26 160 1.6 1.6 0.00 0.00 0.00 94 1007.7
20260906023407 26 151 0.0 1.6 0.00 0.00 0.00 94 1007.8
20260906022906 26 160 0.0 0.0 0.00 0.00 0.00 94 1007.6
20260906022402 26 160 0.0 0.0 0.00 0.00 0.00 94 1007.5
20260906021857 26 133 0.0 0.0 0.00 0.00 0.00 94 1007.5
20260906021356 26 153 0.0 0.0 0.00 0.00 0.00 94 1007.6
20260906020851 26 188 1.6 1.6 0.00 0.00 0.00 94 1007.8
20260906020350 26 159 1.6 1.6 0.00 0.00 0.00 94 1007.7
20260906015845 26 178 0.0 0.0 0.00 0.00 0.00 94 1007.7
20260906015344 27 178 0.0 0.0 0.00 0.00 0.00 93 1007.7
20260906014839 27 178 0.0 0.0 0.00 0.00 0.00 93 1007.5
20260906014333 27 178 0.0 0.0 0.00 0.00 0.00 93 1007.7
20260906013830 27 178 0.0 0.0 0.00 0.00 0.00 92 1007.6
20260906013325 27 178 0.0 0.0 0.00 0.00 0.00 92 1007.8
20260906012820 27 178 0.0 0.0 0.00 0.00 0.00 93 1007.6
20260906012315 27 178 0.0 0.0 0.00 0.00 0.00 93 1007.4
20260906011810 27 178 0.0 0.0 0.00 0.00 0.00 93 1007.3
20260906011310 27 178 0.0 0.0 0.00 0.00 0.00 92 1007.2
20260906010806 27 178 0.0 0.0 0.00 0.00 0.00 92 1007.1
20260906010302 27 178 0.0 0.0 0.00 0.00 0.00 92 1007.1
20260906005756 27 178 0.0 0.0 0.00 0.00 0.00 92 1007.0
20260906005255 27 178 0.0 0.0 0.00 0.00 0.00 91 1007.1
20260906004754 27 178 0.0 0.0 0.00 0.00 0.00 91 1007.1
20260906004249 27 178 0.0 0.0 0.00 0.00 0.00 90 1006.9
20260906003744 27 178 0.0 0.0 0.00 0.00 0.00 90 1006.6
20260906003240 27 178 0.0 0.0 0.00 0.00 0.00 90 1007.0
20260906002735 28 178 0.0 0.0 0.00 0.00 0.00 89 1007.1
20260906002234 28 178 0.0 0.0 0.00 0.00 0.00 89 1007.0
20260906001730 28 178 0.0 0.0 0.00 0.00 0.00 89 1007.0
20260906001225 28 178 0.0 0.0 0.00 0.00 0.00 88 1007.1
20260906000720 28 178 0.0 0.0 0.00 0.00 0.00 87 1007.0
20260906000215 28 178 1.6 1.6 0.00 0.00 0.00 87 1007.0
20260905235715 28 178 0.0 0.0 0.00 0.00 0.00 87 1007.0
20260905235210 28 178 0.0 0.0 0.00 0.00 0.00 86 1006.9
20260905234705 28 178 0.0 0.0 0.00 0.00 0.00 86 1007.0
20260905234200 28 178 0.0 1.6 0.00 0.00 0.00 85 1006.8
20260905233656 28 178 0.0 1.6 0.00 0.00 0.00 84 1006.8
20260905233155 28 178 0.0 0.0 0.00 0.00 0.00 85 1007.0
20260905232650 28 178 0.0 0.0 0.00 0.00 0.00 84 1006.8
20260905232146 28 178 0.0 0.0 0.00 0.00 0.00 84 1006.8
20260905231641 29 178 0.0 0.0 0.00 0.00 0.00 83 1006.9
20260905231137 29 178 0.0 0.0 0.00 0.00 0.00 81 1006.7
20260905230633 29 178 0.0 1.6 0.00 0.00 0.00 81 1006.6
20260905230131 30 178 0.0 0.0 0.00 0.00 0.00 83 1006.6
20260905225630 30 178 0.0 0.0 0.00 0.00 0.00 81 1006.7
20260905225126 30 178 0.0 0.0 0.00 0.00 0.00 80 1006.9
20260905224625 30 178 0.0 0.0 0.00 0.00 0.00 81 1006.9
20260905224125 30 178 0.0 0.0 0.00 0.00 0.00 79 1006.7
20260905223622 30 178 0.0 0.0 0.00 0.00 0.00 77 1006.5
20260905223118 30 178 0.0 0.0 0.00 0.00 0.00 76 1006.8
20260905222619 31 178 0.0 0.0 0.00 0.00 0.00 75 1006.7
20260905222114 31 178 0.0 0.0 0.00 0.00 0.00 74 1006.8
20260905221609 31 178 0.0 1.6 0.00 0.00 0.00 70 1006.7
20260905221106 31 178 0.0 0.0 0.00 0.00 0.00 70 1006.9
20260905220601 32 180 1.6 1.6 0.00 0.00 0.00 68 1006.8
20260905220057 33 180 0.0 0.0 0.00 0.00 0.00 66 1006.9
20260905215556 33 183 1.6 1.6 0.00 0.00 0.00 63 1006.8
20260905215052 32 168 1.6 1.6 0.00 0.00 0.00 65 1006.8
20260905214548 32 170 1.6 1.6 0.00 0.00 0.00 67 1006.7
20260905214043 32 170 1.6 1.6 0.00 0.00 0.00 66 1007.0
20260905213538 33 176 1.6 1.6 0.00 0.00 0.00 65 1007.1
20260905213033 33 185 0.0 1.6 0.00 0.00 0.00 61 1006.9
20260905212528 33 204 8.0 11.3 0.00 0.00 0.00 61 1007.0
20260905212028 34 183 4.8 4.8 0.00 0.00 0.00 62 1006.8
20260905211523 33 154 1.6 1.6 0.00 0.00 0.00 63 1006.9
20260905211019 33 156 1.6 1.6 0.00 0.00 0.00 62 1006.8
20260905210515 32 74 0.0 1.6 0.00 0.00 0.00 62 1007.1
20260905210014 33 74 0.0 1.6 0.00 0.00 0.00 64 1006.8
20260905205509 34 167 0.0 1.6 0.00 0.00 0.00 61 1006.8
20260905205008 33 153 0.0 0.0 0.00 0.00 0.00 63 1006.9
20260905204503 33 209 0.0 1.6 0.00 0.00 0.00 65 1006.8
20260905204003 33 181 1.6 1.6 0.00 0.00 0.00 61 1006.7
20260905203458 33 187 0.0 1.6 0.00 0.00 0.00 62 1006.5
20260905202953 33 158 0.0 0.0 0.00 0.00 0.00 61 1006.5
20260905202448 33 213 4.8 8.0 0.00 0.00 0.00 64 1006.6
20260905201944 33 347 3.2 3.2 0.00 0.00 0.00 61 1006.5
20260905201439 33 199 3.2 3.2 0.00 0.00 0.00 63 1006.6
20260905200938 33 176 3.2 3.2 0.00 0.00 0.00 65 1006.6
20260905200435 33 229 8.0 9.7 0.00 0.00 0.00 63 1007.0
20260905195933 33 206 6.4 9.7 0.00 0.00 0.00 65 1006.9
20260905195428 33 180 1.6 1.6 0.00 0.00 0.00 63 1007.0
20260905194924 33 164 1.6 1.6 0.00 0.00 0.00 66 1007.0
20260905194423 33 71 4.8 4.8 0.00 0.00 0.00 63 1007.1
20260905193923 33 183 4.8 4.8 0.00 0.00 0.00 64 1007.4
20260905193418 32 145 1.6 1.6 0.00 0.00 0.00 66 1007.2
20260905192913 32 101 1.6 1.6 0.00 0.00 0.00 68 1007.4
20260905192409 32 175 0.0 0.0 0.00 0.00 0.00 64 1007.5
20260905191909 32 173 0.0 1.6 0.00 0.00 0.00 68 1007.6
20260905191408 32 198 3.2 4.8 0.00 0.00 0.00 65 1007.6
20260905190903 32 76 4.8 4.8 0.00 0.00 0.00 65 1007.7
20260905190400 32 188 0.0 1.6 0.00 0.00 0.00 65 1008.0
20260905185859 32 183 1.6 1.6 0.00 0.00 0.00 65 1008.1
20260905185354 32 188 1.6 1.6 0.00 0.00 0.00 65 1008.0
20260905184854 32 199 1.6 1.6 0.00 0.00 0.00 64 1008.2
20260905184353 32 218 4.8 4.8 0.00 0.00 0.00 65 1008.2
20260905183851 32 218 6.4 8.0 0.00 0.00 0.00 68 1008.3
20260905183347 32 199 3.2 3.2 0.00 0.00 0.00 66 1008.2
20260905182842 32 201 4.8 4.8 0.00 0.00 0.00 69 1008.4
20260905182341 31 179 3.2 3.2 0.00 0.00 0.00 72 1008.6
20260905181837 31 179 1.6 3.2 0.00 0.00 0.00 69 1008.7
20260905181336 32 233 8.0 9.7 0.00 0.00 0.00 71 1008.8
20260905180835 31 169 1.6 1.6 0.00 0.00 0.00 70 1008.8
20260905180331 31 111 0.0 1.6 0.00 0.00 0.00 72 1008.8
20260905175825 31 189 1.6 3.2 0.00 0.00 0.00 69 1009.0
20260905175320 31 246 6.4 9.7 0.00 0.00 0.00 71 1009.1
20260905174815 31 154 1.6 1.6 0.00 0.00 0.00 72 1009.0
20260905174311 31 183 4.8 8.0 0.00 0.00 0.00 74 1009.0
20260905173807 31 163 0.0 0.0 0.00 0.00 0.00 72 1009.4
20260905173302 31 355 4.8 4.8 0.00 0.00 0.00 71 1009.3
20260905172802 30 192 4.8 4.8 0.00 0.00 0.00 74 1009.6
20260905172301 30 184 3.2 3.2 0.00 0.00 0.00 75 1009.4
20260905171757 30 209 1.6 3.2 0.00 0.00 0.00 73 1009.5
20260905171253 30 163 3.2 3.2 0.00 0.00 0.00 75 1009.5
20260905170749 30 212 4.8 4.8 0.00 0.00 0.00 75 1009.7
20260905170245 30 232 6.4 9.7 0.00 0.00 0.00 76 1009.6
20260905165744 30 166 1.6 3.2 0.00 0.00 0.00 76 1009.6
20260905165240 30 186 4.8 4.8 0.00 0.00 0.00 76 1009.7
20260905164740 29 175 1.6 1.6 0.00 0.00 0.00 78 1009.8
20260905164234 30 183 1.6 3.2 0.00 0.00 0.00 74 1010.1
20260905163730 30 190 6.4 8.0 0.00 0.00 0.00 78 1009.9
20260905163226 30 227 8.0 9.7 0.00 0.00 0.00 78 1010.1
20260905162722 30 175 4.8 4.8 0.00 0.00 0.00 77 1010.2
20260905162222 30 213 6.4 8.0 0.00 0.00 0.00 76 1010.3
20260905161717 29 202 1.6 1.6 0.00 0.00 0.00 79 1010.3
20260905161215 28 217 8.0 9.7 0.00 0.00 0.00 81 1010.2
20260905160713 28 194 3.2 3.2 0.00 0.00 0.00 80 1010.4
20260905160208 28 153 0.0 0.0 0.00 0.00 0.00 83 1010.4
20260905155702 28 177 4.8 4.8 0.00 0.00 0.00 81 1010.4
20260905155202 28 194 4.8 9.7 0.00 0.00 0.00 80 1010.5
20260905154655 28 210 4.8 8.0 0.00 0.00 0.00 82 1010.8
20260905154151 28 157 4.8 4.8 0.00 0.00 0.00 83 1010.5
20260905153647 28 171 1.6 1.6 0.00 0.00 0.00 81 1010.7
20260905153142 28 164 0.0 1.6 0.00 0.00 0.00 81 1010.8
20260905152637 28 144 0.0 1.6 0.00 0.00 0.00 82 1010.6
20260905152132 27 169 1.6 1.6 0.00 0.00 0.00 84 1010.7
20260905151626 28 182 1.6 1.6 0.00 0.00 0.00 84 1010.8
20260905151117 28 217 1.6 3.2 0.00 0.00 0.00 83 1010.7
20260905150612 28 180 3.2 3.2 0.00 0.00 0.00 84 1010.8
20260905150110 28 196 3.2 3.2 0.00 0.00 0.00 83 1010.6
20260905145609 27 176 3.2 3.2 0.00 0.00 0.00 84 1010.6
20260905145108 27 194 1.6 3.2 0.00 0.00 0.00 85 1010.8
20260905144602 27 227 3.2 3.2 0.00 0.00 0.00 86 1010.8
20260905144056 27 192 0.0 1.6 0.00 0.00 0.00 87 1010.6
20260905143555 27 197 1.6 3.2 0.00 0.00 0.00 87 1010.9
20260905143051 27 215 3.2 4.8 0.00 0.00 0.00 88 1010.7
20260905142549 27 206 4.8 8.0 0.00 0.00 0.00 87 1010.9
20260905142044 27 186 1.6 1.6 0.00 0.00 0.00 87 1010.8
20260905141539 27 1 4.8 4.8 0.00 0.00 0.00 86 1010.9
20260905141035 27 189 3.2 3.2 0.00 0.00 0.00 86 1010.8
20260905140530 27 93 0.0 1.6 0.00 0.00 0.00 87 1010.6
20260905140029 27 192 3.2 4.8 0.00 0.00 0.00 87 1010.7
20260905135524 26 166 0.0 0.0 0.00 0.00 0.00 90 1010.8
20260905135020 26 35 1.6 1.6 0.00 0.00 0.00 88 1010.8
20260905134520 26 114 1.6 1.6 0.00 0.00 0.00 90 1010.7
20260905134019 26 151 0.0 1.6 0.00 0.00 0.00 92 1011.1
20260905133514 26 158 1.6 1.6 0.00 0.00 0.00 92 1010.9
20260905133014 26 201 1.6 3.2 0.00 0.00 0.00 94 1010.6
20260905132508 25 129 1.6 1.6 0.00 0.00 0.00 96 1010.9
20260905132003 25 196 1.6 1.6 0.00 0.00 0.00 96 1010.9
20260905131459 25 127 1.6 1.6 0.00 0.00 0.00 98 1010.9
20260905130954 25 166 1.6 1.6 0.00 0.00 0.00 99 1010.8
20260905130453 25 168 0.0 1.6 0.00 0.00 0.00 99 1010.8
20260905125952 25 176 0.0 1.6 0.00 0.00 0.00 99 1011.0
20260905125447 25 177 0.0 1.6 0.00 0.00 0.00 99 1010.6
20260905124943 25 176 1.6 3.2 0.00 0.00 0.00 99 1010.8
20260905124439 25 163 0.0 0.0 0.00 0.00 0.00 99 1010.6
20260905123934 24 159 0.0 0.0 0.00 0.00 0.00 99 1010.7